Погода в Ардыме

Россия / Пензенская область     53°02′36″N   44°51′56″E
темп.,
°C
ветер,
м/с
пор.,
м/с
влажн.,
%
обл.,
%
осадки,
мм/ч
давл.,
гПа
погр.,
м
15 апреля, чт
чт1500:00+10юв410669 0.0 1020148
03:00+8юв347334 0.0 101953
06:00+8вюв367312 0.0 101975
09:00+15вюв465252 0.0 1018245
12:00+20вюв57335 0.0 10171238
15:00+21юв5632100 0.0 10161468
18:00+18юв3647100 0.0 1016113
21:00+14вюв3557100 0.0 101674
16 апреля, пт
пт1600:00+12юв3360100 0.0 101726
03:00+10в3361100 0.0 101723
06:00+10в3563100 0.0 101879
09:00+14в4748100 0.0 1018301
12:00+18вюв4638100 0.0 1019997
15:00+19вюв443390 0.0 10181787
18:00+17в334594 0.0 101844
21:00+12всв51068100 0.0 1020211
17 апреля, сб
сб1700:00+10всв4118375 0.0 1021282
03:00+8всв499045 0.0 1021199
06:00+8всв4109055 0.0 1021212
09:00+14в7106218 0.0 1021511
12:00+18вюв7944100 0.0 10201837
15:00+17в784191 0.0 10191502
18:00+16в71149100 0.0 1018668
21:00+10ююз4577100 0.4 1020322
18 апреля, вс
вс1800:00+7зюз1287100 2.9 1021217
03:00+7всв1291100 4.4 102151
06:00+7сз1291100 0.0 1020153
09:00+8св338472 0.1 1020527
12:00+9св3374100 0.1 1020828
15:00+8св5579100 0.1 1021557
18:00+8св677970 0.0 1021513
21:00+6всв59865 0.0 1021325
19 апреля, пн
пн1900:00+5св41186100 0.0 1021326
03:00+6всв61280100 0.0 1021444
06:00+5всв61382100 0.0 1022617
09:00+5св6107499 1.6 1023657
12:00+9всв7954100 0.0 10241259
15:00+9всв785196 0.0 10241627
18:00+7всв7106280 0.0 10251103
21:00+5всв61067100 0.0 1027835